Location: Kitt Peak
(31.9639°N, 111.5992°W)
Time: 14:58:49
(UTC-07:00)

SRMSAT - Pass Details

Date: 21 December 2025
Orbit: 846 x 863 km, 20.0° (Epoch: 13 January)

Event Time Altitude Azimuth Distance (km) Brightness Sun altitude
Exits shadow 05:15:47 21° 204° (SSW) 1,782 ? -26.2°
Maximum altitude 05:16:58 23° 187° (S) 1,723 ? -25.9°
Drops below altitude 10° 05:21:29 10° 136° (SE) 2,459 ? -25.0°
Sets 05:24:34 0° 122° (ESE) 3,397 ? -24.3°
